* Astronomy

Members Login
Username 
 
Password 
    Remember Me  
Post Info TOPIC: Asteroid 2012 JT17


L

Posts: 131433
Date:
Asteroid 2012 JT17
Permalink  
 


Orbital elements:
2012 JT17                                                Earth MOID = 0.1058 AU
Epoch 2012 Mar. 14.0 TT = JDT 2456000.5                 MPC
M 303.85943              (2000.0)            P               Q
n   0.25110188     Peri.  118.43549     +0.93980358     +0.29060600
a   2.4883000      Node   225.32771     -0.32653562     +0.91879287
e   0.6173351      Incl.   14.64279     +0.10071605     +0.26714756
P   3.93           H   18.4           G   0.15           U   8

MPEC 2012 - K16



__________________
Page 1 of 1  sorted by
 
Quick Reply

Please log in to post quick replies.



Create your own FREE Forum
Report Abuse
Powered by ActiveBoard